Погода в Джейкобабаде

Пакистан     28°16′55″N   68°26′10″E
темп.,
°C
ветер,
м/с
пор.,
м/с
влажн.,
%
обл.,
%
осадки,
мм/ч
давл.,
гПа
погр.,
м
19 января, вт
вт1923:00+15всв34190 0.0 101830
02:00+13в34230 0.0 101845
05:00+12юв22280 0.0 101722
08:00+12ююв11280 0.0 101922
11:00+20в12150 0.0 1019493
14:00+24ссз22110 0.0 10151221
17:00+24с22120 0.0 1014132
20:00+17ссв33180 0.0 101725
20 января, ср
ср2023:00+15с12200 0.0 101723
02:00+15сз11210 0.0 101623
05:00+15зсз12210 0.0 101623
08:00+15з22210 0.0 101823
11:00+24зсз33130 0.0 1018548
14:00+28сз22120 0.0 10151145
17:00+27ссз23149 0.0 101485
20:00+19с122155 0.0 101623
21 января, чт
чт2123:00+18ю122327 0.0 101623
02:00+16ю01260 0.0 101523
05:00+16ююв12270 0.0 101423
08:00+16ююв22270 0.0 101623
11:00+25ююз23160 0.0 1016599
14:00+29ююз34130 0.0 10121565
17:00+29юз23140 0.0 101167
20:00+20ссз23240 0.0 101231
22 января, пт
пт2223:00+19св12260 0.0 101224
02:00+17юв22280 0.0 101124
05:00+16всв22310 0.0 100923
08:00+16всв22350 0.0 101028
11:00+24св33240 0.0 1011531
14:00+29ссв43170 0.0 10081136
17:00+27св34170 0.0 1007609
20:00+21с34250 0.0 101036
23 января, сб
сб2323:00+18с613160 0.0 1011320
02:00+17ссз816120 0.0 1011400
05:00+15ссз91690 0.0 1011362
08:00+13ссз915110 0.0 1014352
11:00+20сз81140 0.0 1014890
14:00+24сз91220 0.0 10101627
17:00+23зсз5720 0.0 1009498
20:00+13ссз71470 0.0 1012269